Regional Weather Roundup
Issued by NWS

Home | Current Version | Previous Version | Text Only | Print | Product List | Glossary Off
Versions: 1 2 3 4 5 6 7 8 9 10 11 12 13 14 15 16 17 18 19 20 21 22 23 24 25 26 27 28 29 30 31 32 33 34 35 36 37 38 39 40 41 42 43 44 45 46 47 48 49 50

000
ASUS43 KOAX 050202
RWRNE

WEATHER ROUNDUP FOR NEBRASKA
NATIONAL WEATHER SERVICE OMAHA NE
800 PM CST WED MAR 04 2015

NOTES: SATELLITE DATA IS BEING USED TO AUGMENT CLOUD COVER ABOVE
       12000 FEET.
       "FAIR" INDICATES FEW OR NO CLOUDS BELOW 12,000 FEET WITH NO
       SIGNIFICANT WEATHER AND/OR OBSTRUCTIONS TO VISIBILITY.

  * THESE STATIONS DO NOT REPORT WEATHER SUCH AS RAIN...SNOW OR FOG.

NEZ001>004-019>022-054>056-050300-
NEBRASKA PANHANDLE

CITY           SKY/WX    TMP DP  RH WIND       PRES   REMARKS
SCOTTSBLUFF    CLEAR     17   4  56 NW5       30.20R WCI  10
ALLIANCE       CLEAR     15   1  53 NW9       30.19R WCI   3
CHADRON        CLOUDY    10   5  80 W7        30.23R WCI  -1
KIMBALL        CLEAR     14   4  63 NW5       30.15R WCI   7
SIDNEY         CLEAR     15   4  61 NW6       30.20R WCI   6
$$

NEZ057>060-069>072-079>082-050300-
SOUTHWEST NEBRASKA

CITY           SKY/WX    TMP DP  RH WIND       PRES   REMARKS
NORTH PLATTE   CLEAR     16  -2  45 N5        30.27R WCI   9
IMPERIAL         N/A     22   5  48 N3        30.26R
LEXINGTON      CLEAR     17   4  56 NE7       30.31R WCI   7
MCCOOK         MOCLDY    23   3  42 NW5       30.30R WCI  17
OGALLALA       CLEAR     18   4  54 N6        30.25R WCI  10
$$

NEZ005>010-023>029-035>040-094-050300-
NORTH CENTRAL NEBRASKA

CITY           SKY/WX    TMP DP  RH WIND       PRES   REMARKS
VALENTINE      CLEAR      9   1  70 N6        30.30R WCI  -1
AINSWORTH      CLEAR      8   0  70 N5        30.30R WCI  -1
BROKEN BOW     CLEAR     11  -5  48 N6        30.30R WCI   1
O`NEILL        CLEAR      8  -1  65 N3        30.35R
ORD            CLEAR     13  -3  49 N6        30.34R WCI   4
$$

NEZ041-046>049-061>064-073>077-083>087-050300-
SOUTH CENTRAL NEBRASKA

CITY           SKY/WX    TMP DP  RH WIND       PRES   REMARKS
GRAND ISLAND   CLEAR     14   2  58 N8        30.37R WCI   3
AURORA         CLEAR     14   2  60 N9        30.37R WCI   1
HASTINGS       CLEAR     16   2  54 NE5       30.34R WCI   9
HEBRON         CLEAR     20   4  49 CALM      30.38R
HOLDREGE       PTCLDY    16   5  60 NE7       30.31R WCI   6
KEARNEY *      FAIR      14   1  57 NE9       30.33R WCI   2
YORK           CLEAR     18   1  49 N14       30.38R WCI   4
$$

NEZ011>018-030>034-042>045-050300-
NORTHEAST NEBRASKA

CITY           SKY/WX    TMP DP  RH WIND       PRES   REMARKS
NORFOLK        CLEAR     12  -2  53 N8        30.39R WCI   0
ALBION         CLEAR     13  -4  45 N8        30.38R WCI   2
BLAIR          PTCLDY    17  -2  42 N10       30.39R WCI   5
COLUMBUS *     CLEAR     16  -8  35 N10       30.41R WCI   3
FREMONT        CLEAR     17  -2  44 N8        30.42R WCI   6
TEKAMAH        CLEAR     14  -2  49 N13       30.44R WCI   0
WAYNE          CLEAR      5  -6  60 CALM      30.43R
$$

NEZ050>053-065>068-078-088>093-050300-
SOUTHEAST NEBRASKA

CITY           SKY/WX    TMP DP  RH WIND       PRES   REMARKS
LINCOLN        CLEAR     14  -1  51 N10       30.41R WCI   1
OMAHA EPPLEY   PTCLDY    17   0  47 N12       30.41R WCI   4
BEATRICE       CLEAR     19   2  47 N6        30.39R WCI  11
FALLS CITY     PTCLDY    21   0  39 NW7       30.40R WCI  12
NEBRASKA CITY  CLEAR     20  -5  33 N8        30.39R WCI  10
$$

NEZ044-045-051>053-067-050300-
OMAHA AREA

CITY           SKY/WX    TMP DP  RH WIND       PRES   REMARKS
OMAHA EPPLEY   PTCLDY    17   0  47 N12       30.41R WCI   4
BLAIR          PTCLDY    17  -2  42 N10       30.39R WCI   5
FREMONT        CLEAR     17  -2  44 N8        30.42R WCI   6
MILLARD        CLEAR     20  -2  38 N5        30.41R WCI  13
OFFUTT AFB     PTCLDY    19  -2  39 N12G17    30.40R WCI   6
WAHOO          FAIR      17  -1  44 N13       30.41R WCI   3
$$



USA.gov is the U.S. government's official web portal to all federal, state and local government web resources and services.